When you browse on this site, cookies collect data to enhance your experience and personalize the content and advertising you see.
Visit our Privacy Policy to learn more. By continuing to use the site, you agree to this use of cookies and data.
  • în România
  • Lista ţărilor
  • Pe 7 zile
  • Temperatura apei
  • Hartă satelitară
  • Meteo pe hartă
  • Widget-uri
  • user-avatar
    Intrare

    Meteo pe oră la Marcinowiczki

    Astăzi, 24 Februarie, Duminică

    Timp Temperatura Precipitaţii Vânt Presiune Umiditate
    00:00 -1°C° 0 mm 1 m/s 762 mmHg 36%
    01:00 -1°C° 0 mm 1 m/s 762 mmHg 35%
    02:00 -1°C° 0 mm 1 m/s 762 mmHg 34%
    03:00 -1°C° 0 mm 0 m/s 762 mmHg 33%
    04:00 -1°C° 0 mm 0 m/s 761 mmHg 32%
    05:00 -1°C° 0 mm 0 m/s 761 mmHg 31%
    06:00 0°C° 0 mm 0 m/s 761 mmHg 31%
    07:00 0°C° 0 mm 0 m/s 761 mmHg 31%
    08:00 +1°C° 0 mm 0 m/s 761 mmHg 30%
    09:00 +3°C° 0 mm 1 m/s 761 mmHg 29%
    10:00 +4°C° 0 mm 1 m/s 761 mmHg 28%
    11:00 +5°C° 0 mm 1 m/s 761 mmHg 28%
    12:00 +6°C° 0 mm 2 m/s 761 mmHg 27%
    13:00 +7°C° 0 mm 2 m/s 761 mmHg 27%
    14:00 +7°C° 0 mm 2 m/s 760 mmHg 32%
    15:00 +6°C° 0 mm 2 m/s 760 mmHg 38%
    16:00 +6°C° 0 mm 2 m/s 760 mmHg 44%
    17:00 +5°C° 0 mm 2 m/s 760 mmHg 46%
    18:00 +3°C° 0 mm 2 m/s 760 mmHg 49%
    19:00 +2°C° 0 mm 2 m/s 760 mmHg 52%
    20:00 +2°C° 0 mm 2 m/s 760 mmHg 53%
    21:00 +2°C° 0 mm 2 m/s 760 mmHg 54%
    22:00 +2°C° 0 mm 2 m/s 760 mmHg 56%
    23:00 +2°C° 0 mm 2 m/s 760 mmHg 57%

    Mâine, 25 Februarie, Luni

    Timp Temperatura Precipitaţii Vânt Presiune Umiditate
    00:00 +2°C° 0 mm 2 m/s 760 mmHg 57%
    01:00 +2°C° 0 mm 2 m/s 760 mmHg 58%
    02:00 +2°C° 0 mm 2 m/s 760 mmHg 60%
    03:00 +2°C° 0 mm 2 m/s 760 mmHg 61%
    04:00 +2°C° 0 mm 2 m/s 759 mmHg 62%
    05:00 +1°C° 0 mm 2 m/s 759 mmHg 63%
    06:00 +1°C° 0 mm 2 m/s 759 mmHg 65%
    07:00 +1°C° 0 mm 2 m/s 759 mmHg 66%
    08:00 +2°C° 0 mm 3 m/s 759 mmHg 61%
    09:00 +3°C° 0 mm 4 m/s 760 mmHg 57%
    10:00 +5°C° 0 mm 4 m/s 760 mmHg 52%
    11:00 +6°C° 0 mm 4 m/s 760 mmHg 52%
    12:00 +7°C° 0 mm 4 m/s 759 mmHg 52%
    13:00 +8°C° 0 mm 4 m/s 759 mmHg 52%
    14:00 +8°C° 0 mm 4 m/s 759 mmHg 54%
    15:00 +8°C° 0 mm 4 m/s 758 mmHg 57%
    16:00 +9°C° 0 mm 3 m/s 758 mmHg 60%
    17:00 +8°C° 0 mm 3 m/s 758 mmHg 65%
    18:00 +5°C° 0 mm 3 m/s 758 mmHg 70%
    19:00 +4°C° 0 mm 3 m/s 758 mmHg 75%
    20:00 +3°C° 0 mm 3 m/s 758 mmHg 76%
    21:00 +3°C° 0 mm 3 m/s 758 mmHg 78%
    22:00 +2°C° 0 mm 3 m/s 758 mmHg 80%
    23:00 +2°C° 0 mm 3 m/s 758 mmHg 81%

    Poimâine, 26 Februarie, Marţi

    Timp Temperatura Precipitaţii Vânt Presiune Umiditate
    00:00 +2°C° 0 mm 3 m/s 758 mmHg 82%
    01:00 +2°C° 0 mm 3 m/s 758 mmHg 82%
    02:00 +2°C° 0 mm 3 m/s 757 mmHg 82%
    03:00 +2°C° 0 mm 3 m/s 757 mmHg 82%
    04:00 +2°C° 0 mm 3 m/s 757 mmHg 82%
    05:00 +2°C° 0 mm 3 m/s 757 mmHg 82%
    06:00 +2°C° 0 mm 3 m/s 756 mmHg 82%
    07:00 +1°C° 0 mm 4 m/s 756 mmHg 82%
    08:00 +3°C° 0 mm 4 m/s 756 mmHg 73%
    09:00 +5°C° 0 mm 5 m/s 756 mmHg 63%
    10:00 +7°C° 0 mm 6 m/s 756 mmHg 54%
    11:00 +7°C° 0 mm 6 m/s 756 mmHg 52%
    12:00 +8°C° 0 mm 6 m/s 755 mmHg 51%
    13:00 +9°C° 0 mm 6 m/s 755 mmHg 49%
    14:00 +9°C° 0 mm 6 m/s 755 mmHg 51%
    15:00 +9°C° 0 mm 6 m/s 755 mmHg 54%
    16:00 +9°C° 0 mm 6 m/s 754 mmHg 56%
    17:00 +8°C° 0 mm 5 m/s 755 mmHg 60%
    18:00 +7°C° 0 mm 4 m/s 755 mmHg 65%
    19:00 +6°C° 0 mm 4 m/s 755 mmHg 69%
    20:00 +5°C° 0 mm 4 m/s 755 mmHg 72%
    21:00 +5°C° 0 mm 3 m/s 755 mmHg 74%
    22:00 +4°C° 0 mm 3 m/s 755 mmHg 76%
    23:00 +4°C° 0 mm 3 m/s 755 mmHg 78%

    27 Februarie, Miercuri

    Timp Temperatura Precipitaţii Vânt Presiune Umiditate
    00:00 +4°C° 0 mm 3 m/s 755 mmHg 80%
    01:00 +4°C° 0 mm 2 m/s 755 mmHg 82%
    02:00 +4°C° 0 mm 2 m/s 755 mmHg 84%
    03:00 +4°C° 0 mm 2 m/s 755 mmHg 85%
    04:00 +3°C° 0 mm 2 m/s 755 mmHg 86%
    05:00 +3°C° 0 mm 2 m/s 755 mmHg 86%
    06:00 +3°C° 0 mm 2 m/s 754 mmHg 86%
    07:00 +3°C° 0 mm 2 m/s 754 mmHg 85%
    08:00 +5°C° 0 mm 2 m/s 754 mmHg 77%
    09:00 +7°C° 0 mm 2 m/s 754 mmHg 68%
    10:00 +8°C° 0 mm 3 m/s 754 mmHg 60%
    11:00 +10°C° 0 mm 3 m/s 754 mmHg 55%
    12:00 +11°C° 0 mm 3 m/s 753 mmHg 50%
    13:00 +13°C° 0 mm 3 m/s 753 mmHg 46%
    14:00 +13°C° 0 mm 3 m/s 752 mmHg 47%
    15:00 +13°C° 0 mm 3 m/s 752 mmHg 48%
    16:00 +13°C° 0 mm 3 m/s 751 mmHg 49%
    17:00 +12°C° 0 mm 2 m/s 751 mmHg 55%
    18:00 +10°C° 0 mm 2 m/s 751 mmHg 60%
    19:00 +8°C° 0 mm 2 m/s 751 mmHg 65%
    20:00 +8°C° 0 mm 2 m/s 750 mmHg 65%
    21:00 +7°C° 0 mm 2 m/s 750 mmHg 65%
    22:00 +7°C° 0 mm 3 m/s 750 mmHg 64%
    23:00 +7°C° 0 mm 3 m/s 749 mmHg 63%

    28 Februarie, Joi

    Timp Temperatura Precipitaţii Vânt Presiune Umiditate
    00:00 +7°C° 0 mm 3 m/s 749 mmHg 62%
    01:00 +7°C° 0 mm 3 m/s 749 mmHg 60%
    02:00 +5°C° 0 mm 3 m/s 748 mmHg 60%
    03:00 +5°C° 0 mm 3 m/s 748 mmHg 60%
    04:00 +5°C° 0 mm 3 m/s 747 mmHg 60%
    05:00 +5°C° 0 mm 3 m/s 747 mmHg 61%
    06:00 +5°C° 0 mm 3 m/s 746 mmHg 61%
    07:00 +5°C° 0 mm 4 m/s 746 mmHg 62%
    08:00 +6°C° 0 mm 5 m/s 746 mmHg 59%
    09:00 +8°C° 0 mm 5 m/s 746 mmHg 55%
    10:00 +10°C° 0 mm 6 m/s 746 mmHg 52%
    11:00 +11°C° 0 mm 7 m/s 745 mmHg 53%
    12:00 +12°C° 0 mm 7 m/s 745 mmHg 54%
    13:00 +12°C° 0 mm 7 m/s 744 mmHg 54%
    14:00 +12°C° 0 mm 7 m/s 744 mmHg 57%
    15:00 +12°C° 0 mm 7 m/s 744 mmHg 59%
    16:00 +11°C° 0 mm 7 m/s 744 mmHg 62%
    17:00 +10°C° 0 mm 6 m/s 744 mmHg 69%
    18:00 +9°C° 0 mm 5 m/s 745 mmHg 76%
    19:00 +8°C° 0 mm 5 m/s 745 mmHg 83%
    20:00 +7°C° 0 mm 5 m/s 745 mmHg 85%
    21:00 +6°C° 0 mm 5 m/s 745 mmHg 88%
    22:00 +6°C° 0 mm 5 m/s 745 mmHg 91%
    23:00 +5°C° 0 mm 4 m/s 745 mmHg 92%

    1 Martie, Vineri

    Timp Temperatura Precipitaţii Vânt Presiune Umiditate
    00:00 +5°C° 0 mm 4 m/s 746 mmHg 93%
    01:00 +4°C° 0 mm 4 m/s 746 mmHg 95%
    02:00 +4°C° 0 mm 4 m/s 746 mmHg 94%
    03:00 +4°C° 0 mm 4 m/s 746 mmHg 93%
    04:00 +4°C° 0 mm 4 m/s 746 mmHg 92%
    05:00 +4°C° 0 mm 4 m/s 746 mmHg 92%
    06:00 +4°C° 0 mm 4 m/s 746 mmHg 91%
    07:00 +3°C° 0 mm 4 m/s 746 mmHg 91%
    08:00 +4°C° 0 mm 4 m/s 747 mmHg 86%
    09:00 +5°C° 0 mm 5 m/s 747 mmHg 80%
    10:00 +5°C° 0 mm 5 m/s 747 mmHg 75%
    11:00 +6°C° 0 mm 5 m/s 747 mmHg 70%
    12:00 +6°C° 0 mm 5 m/s 747 mmHg 66%
    13:00 +7°C° 0 mm 5 m/s 747 mmHg 61%
    14:00 +7°C° 0 mm 4 m/s 747 mmHg 59%
    15:00 +7°C° 0 mm 4 m/s 747 mmHg 58%
    16:00 +7°C° 0 mm 4 m/s 747 mmHg 57%
    17:00 +7°C° 0 mm 3 m/s 747 mmHg 61%
    18:00 +5°C° 0 mm 3 m/s 747 mmHg 65%
    19:00 +5°C° 0 mm 2 m/s 748 mmHg 69%
    20:00 +4°C° 0 mm 2 m/s 748 mmHg 71%
    21:00 +4°C° 0 mm 2 m/s 749 mmHg 72%
    22:00 +3°C° 0 mm 2 m/s 749 mmHg 74%
    23:00 +3°C° 0 mm 2 m/s 749 mmHg 75%
    Arată mai mult